COSMOS 2436 (723)

Last updated on Jan. 18, 2020, 4:38 a.m. UTC

1 32395U 07065C   20017.57678891 -.00000001  00000-0  10000-3 0  9997
2 32395  64.6412 271.6802 0015464 341.5822 183.6839  2.13280953 93810
UTC
Height (km)
Latitude
Longitude
Inclination
Orbital Period
UTC large
Height (km)
Speed (km/s)
/
Latitude / Longitude
Inclination (degrees)
Orbital Period (minutes)
Azimuth
Elevation
Range (km)
Doppler Factor
iOS Compass Heading
iOS Angle

Next 30 passes for location: Hong Kong

Rise time Rise Azimuth (degrees) Set time Set Azimuth (degrees) Duration Max altitude (degrees)

No matching passes for this satellites